Wright-Patt AFB, OH

2:57 PM EDT on May 20, 2018 (GMT -0400)
Wright-Patterson Air Force Base

Weather History for KFFO - December, 2011

Change the Weather History Date:

Wednesday, December 14, 2011

  Actual Average Record
Temperature  
Mean Temperature 48 °F -  
Max Temperature 56 °F 39 °F 64 °F (2015)
Min Temperature 41 °F 25 °F 4 °F (2016)
Degree Days  
Heating Degree Days 16    
Moisture  
Dew Point 45 °F    
Average Humidity 94    
Maximum Humidity 100    
Minimum Humidity 81    
Precipitation  
Precipitation 0.32 in - - ()
Sea Level Pressure  
Sea Level Pressure 30.23 in    
Wind  
Wind Speed 4 mph (SSE)    
Max Wind Speed 16 mph    
Max Gust Speed -    
Visibility 7 miles    
Events Rain    
Averages and records for this station are not official NWS values.
T = Trace of Precipitation, MM = Missing Value Source: NWS Daily Summary

Daily Weather History Graph

Daily Weather History Graph

Search for Another Location

Airport or City:

Astronomy

Dec. 14, 2011 Rise Set
Actual Time 7:49 AM EST 5:12 PM EST
Civil Twilight 7:19 AM EST 5:42 PM EST
Nautical Twilight 6:45 AM EST 6:16 PM EST
Astronomical Twilight 6:12 AM EST 6:49 PM EST
Moon 9:30 PM EST (12/14) 10:34 AM EST (12/14)
Length of Visible Light 10h 23m
Length of Day
9h 22m
Waning Gibbous, 83% of the Moon is Illuminated
Dec 14
Waning Gibbous
Dec 17
Last Quarter
Dec 24
New
Jan 1
First Quarter
Jan 9
Full

Hourly Weather History & Observations

Time (EST) Temp. Windchill Dew Point Humidity Pressure Visibility Wind Dir Wind Speed Gust Speed Precip Events Conditions
12:55 AM 41.5 °F - 37.2 °F 85% 30.35 in 10.0 mi Calm Calm - N/A   Overcast
1:24 AM 42.8 °F - 37.4 °F 81% 30.34 in 10.0 mi Calm Calm - N/A Rain Light Rain
1:55 AM 42.8 °F - 38.5 °F 85% 30.33 in 8.0 mi Calm Calm - 0.00 in Rain Light Rain
2:24 AM 42.8 °F - 39.2 °F 87% 30.32 in 6.0 mi Calm Calm - N/A Rain Light Rain
2:30 AM 42.8 °F - 39.2 °F 87% 30.32 in 6.0 mi Calm Calm - N/A Rain Light Rain
2:55 AM 41.9 °F - 40.5 °F 95% 30.33 in 9.0 mi Calm Calm - 0.05 in Rain Light Rain
3:55 AM 41.5 °F - 41.0 °F 98% 30.34 in 3.0 mi Calm Calm - 0.08 in Rain Rain
4:10 AM 41.0 °F - 41.0 °F 100% 30.33 in 2.0 mi Calm Calm - N/A Rain Light Rain
4:15 AM 41.0 °F - 41.0 °F 100% 30.32 in 2.0 mi Calm Calm - N/A Rain Light Rain
4:55 AM 41.9 °F 40.0 °F 41.7 °F 99% 30.32 in 3.0 mi SE 3.5 mph - 0.09 in Rain Light Rain
5:01 AM 42.8 °F 41.1 °F 41.0 °F 93% 30.31 in 3.0 mi SE 3.5 mph - N/A Rain Light Rain
5:12 AM 42.8 °F 41.1 °F 41.0 °F 93% 30.31 in 3.0 mi SSE 3.5 mph - N/A Rain Light Rain
5:55 AM 42.6 °F 39.9 °F 42.4 °F 99% 30.30 in 4.0 mi South 4.6 mph - 0.07 in Rain Light Rain
6:15 AM 42.8 °F 40.1 °F 42.8 °F 100% 30.30 in 5.0 mi SSE 4.6 mph - N/A   Overcast
6:33 AM 42.8 °F 41.1 °F 42.8 °F 100% 30.30 in 5.0 mi SSE 3.5 mph - N/A Rain Light Rain
6:48 AM 42.8 °F 39.3 °F 42.8 °F 100% 30.29 in 3.0 mi SSE 5.8 mph - N/A   Overcast
6:55 AM 43.0 °F 40.3 °F 42.8 °F 99% 30.30 in 5.0 mi SSE 4.6 mph - 0.00 in   Mostly Cloudy
7:10 AM 42.8 °F 38.6 °F 42.8 °F 100% 30.29 in 4.0 mi SSE 6.9 mph - N/A Rain Light Rain
7:15 AM 42.8 °F 38.6 °F 42.8 °F 100% 30.29 in 4.0 mi SSE 6.9 mph - N/A Rain Light Rain
7:31 AM 42.8 °F 38.6 °F 42.8 °F 100% 30.29 in 2.0 mi SSE 6.9 mph - N/A Rain Light Rain
7:55 AM 43.3 °F 40.7 °F 43.2 °F 99% 30.28 in 2.0 mi SSE 4.6 mph - 0.01 in Rain Light Rain
8:09 AM 42.8 °F 40.1 °F 42.8 °F 100% 30.28 in 3.0 mi SE 4.6 mph - N/A   Overcast
8:55 AM 44.2 °F 42.7 °F 44.1 °F 99% 30.27 in 3.0 mi Variable 3.5 mph - 0.00 in   Overcast
9:17 AM 44.6 °F 40.7 °F 44.6 °F 100% 30.27 in 6.0 mi SSE 6.9 mph - N/A   Overcast
9:37 AM 44.6 °F 41.4 °F 44.6 °F 100% 30.24 in 4.0 mi SSE 5.8 mph - N/A   Mostly Cloudy
9:49 AM 46.4 °F 45.2 °F 46.4 °F 100% 30.27 in 4.0 mi SSE 3.5 mph - N/A   Mostly Cloudy
9:55 AM 45.9 °F 43.6 °F 45.7 °F 99% 30.27 in 4.0 mi SE 4.6 mph - N/A   Mostly Cloudy
10:09 AM 46.4 °F 45.2 °F 46.4 °F 100% 30.24 in 4.0 mi South 3.5 mph - N/A   Overcast
10:34 AM 46.4 °F 42.4 °F 46.4 °F 100% 30.25 in 5.0 mi SSE 8.1 mph - N/A   Mostly Cloudy
10:43 AM 46.4 °F 42.9 °F 46.4 °F 100% 30.26 in 5.0 mi South 6.9 mph - N/A   Mostly Cloudy
10:55 AM 47.7 °F - 47.1 °F 98% 30.26 in 5.0 mi South 6.9 mph - N/A   Mostly Cloudy
11:47 AM 50.0 °F - 48.2 °F 94% 30.23 in 10.0 mi South 9.2 mph - N/A Rain Light Rain
11:55 AM 50.2 °F - 48.7 °F 95% 30.22 in 10.0 mi South 10.4 mph - 0.00 in Rain Light Rain
11:57 AM 50.0 °F - 48.2 °F 94% 30.22 in 10.0 mi South 11.5 mph - N/A   Overcast
12:55 PM 52.5 °F - 50.0 °F 91% 30.20 in 10.0 mi South 9.2 mph - 0.00 in   Overcast
1:04 PM 53.6 °F - 50.0 °F 88% 30.18 in 10.0 mi South 8.1 mph - N/A   Overcast
1:55 PM 54.3 °F - 50.9 °F 88% 30.17 in 10.0 mi South 8.1 mph - N/A   Overcast
2:55 PM 55.9 °F - 51.8 °F 86% 30.14 in 10.0 mi SSW 8.1 mph - N/A   Overcast
3:55 PM 56.1 °F - 52.0 °F 86% 30.11 in 10.0 mi South 10.4 mph - N/A   Overcast
4:55 PM 55.0 °F - 51.6 °F 88% 30.09 in 10.0 mi SSE 8.1 mph - N/A   Overcast
5:55 PM 54.7 °F - 51.6 °F 89% 30.06 in 10.0 mi SE 9.2 mph - N/A   Overcast
6:21 PM 55.4 °F - 51.8 °F 88% 30.06 in 10.0 mi SSE 11.5 mph - N/A   Overcast
6:55 PM 54.0 °F - 51.1 °F 90% 30.07 in 10.0 mi SSE 9.2 mph - N/A   Mostly Cloudy
7:55 PM 53.6 °F - 50.7 °F 90% 30.06 in 10.0 mi South 8.1 mph - N/A   Mostly Cloudy
8:55 PM 55.4 °F - 50.9 °F 85% 30.05 in 10.0 mi South 10.4 mph - N/A   Scattered Clouds
9:55 PM 54.9 °F - 50.5 °F 85% 30.02 in 10.0 mi South 9.2 mph - N/A   Mostly Cloudy
10:55 PM 55.4 °F - 50.7 °F 84% 30.01 in 10.0 mi SSW 10.4 mph - N/A   Mostly Cloudy
11:06 PM 55.4 °F - 50.0 °F 82% 30.00 in 10.0 mi South 12.7 mph - N/A Rain Light Rain
11:55 PM 55.8 °F - 51.1 °F 84% 29.98 in 9.0 mi South 16.1 mph - 0.02 in Rain Light Rain